Regional Weather Roundup
Issued by NWS Charleston, SC

Current Version | Previous Version | Graphics & Text | Print | Product List | Glossary On
Versions: 1 2 3 4 5 6 7 8 9 10 11 12 13 14 15 16 17 18 19 20 21 22 23 24 25 26 27 28 29 30 31 32 33 34 35 36 37 38 39 40 41 42 43 44 45 46 47 48 49 50
713 ASUS42 KCHS 200712 RWRCHS REGIONAL WEATHER ROUNDUP NATIONAL WEATHER SERVICE CHARLESTON SC 200 AM EST MON FEB 20 2017 NOTE: "FAIR" INDICATES FEW OR NO CLOUDS BELOW 12,000 FEET WITH NO SIGNIFICANT WEATHER AND/OR OBSTRUCTIONS TO VISIBILITY. NOT ALL STATIONS ARE QUALITY CONTROLLED. USE DATA WITH CAUTION... ESPECIALLY DEWPOINT OBSERVATIONS. SCZ027-030-031-034>040-042>050-200800- ...SOUTHEAST SOUTH CAROLINA... CITY SKY/WX TMP DP RH WIND PRES REMARKS N CHARLESTON CLEAR 51 47 86 CALM 30.11R WATERFRONT PRK N/A 58 53 83 CALM 30.10R MOUNT PLEASANT LGT RAIN 50 48 93 CALM 30.11R JOHNS ISLAND FAIR 50 48 93 W5 30.11S PINOPOLIS N/A 55 52 88 VRB2 30.02R MONCKS CORNER FAIR 46 45 93 CALM 30.11R SUMMERVILLE FAIR 48 46 93 CALM 30.13R BEAUFORT MCAS CLEAR 52 49 89 CALM 30.12S BEAUFORT ARPT FAIR 52 50 93 CALM 30.11S HILTON HEAD IS CLEAR 50 50 100 CALM 30.13S WALTERBORO SUNNY 46 45 93 CALM 30.13R ALLENDALE FAIR 48 46 93 CALM 30.12R ...SOUTHERN MIDLANDS AND PEE DEE... CITY SKY/WX TMP DP RH WIND PRES REMARKS GEORGETOWN FAIR 46 45 93 CALM 30.11R KINGSTREE FAIR 45 43 93 CALM 30.11R ORANGEBURG CLEAR 52 49 89 NW3 30.13R BARNWELL FAIR 48 46 93 CALM 30.13S AIKEN FAIR 50 45 81 CALM 30.16S MANNING FAIR 45 41 87 MISG 30.12R COLUMBIA CLEAR 47 43 86 CALM 30.13R SUMTER CLEAR 50 44 82 CALM 30.11R FLORENCE CLEAR 52 45 77 N7 30.11R MYRTLE BEACH CLEAR 51 47 86 CALM 30.10R N MYRTLE BEACH CLEAR 48 48 100 CALM 30.08R $$ GAZ063-065-086>088-099>101-113>116-118-119-134>141-150-200800- ...SOUTHEAST GEORGIA... CITY SKY/WX TMP DP RH WIND PRES REMARKS SAVANNAH ARPT CLEAR 52 48 86 CALM 30.13S HUNTER AAF CLEAR 51 51 99 CALM 30.10R FORT STEWART CLEAR 51 49 92 CALM 30.10S STATESBORO CLEAR 49 49 100 CALM 30.13S SYLVANIA SUNNY N/A N/A N/A CALM 30.14S CLAXTON FAIR N/A N/A N/A CALM 30.13S ...CSRA...CENTRAL AND FAR SOUTHEAST GEORGIA... CITY SKY/WX TMP DP RH WIND PRES REMARKS THOMSON CLEAR 47 47 100 CALM 30.19R AUGUSTA-BUSH CLEAR 46 43 89 CALM 30.13S AUGUSTA-DANIEL CLEAR 56 47 71 CALM 30.14S SWAINSBORO FAIR 50 50 100 N3 30.14S VIDALIA CLEAR 55 54 94 NW3 30.13S EASTMAN FOG 48 48 100 CALM 30.17R VSB 3/4 HAZLEHURST FAIR 53 53 100 CALM 30.12S ALMA CLEAR 50 50 100 CALM 30.13R WAYCROSS CLEAR 55 55 100 CALM 30.13R JESUP FAIR 50 46 87 CALM 30.12S BAXLEY FAIR 52 52 100 CALM 30.13R BRUNSWICK FOG 54 54 100 CALM 30.12S VSB 1/4 SAINT SIMONS CLEAR 56 55 97 CALM 30.11S $$ SCZ027-028-034-036>038-045-046-048>050-GAZ119-141-200800- ...LAKE AND SUPPLEMENTAL COASTAL OBSERVATIONS... STATION/POSITION TIME TEMP WIND PRES WAVE SWELL AIR SEA DIR/SP/G HT/PER HT/PER/DIR (UTC) (F) (DEG/KT/KT) (MB) (FT/S) (FT/S/D) WINYAH BAY 0545 57 320/ 5 1018.0 LAKE MURRAY 0620 54 CALM 1019.6 ACE BASIN NERRS 0545 51 CALM 1019.0 FORT PULASKI 0648 58 60 CALM / 1 1020.2R SAPELO ISLAND 0600 56 CALM 1020.0 $$ ANZ835-935-AMZ111-154-330-350-352-354-370-450-454-472-200800- ...C-MAN AND BUOY OBSERVATIONS... STATION/POSITION TIME TEMP WIND PRES WAVE SWELL AIR SEA DIR/SP/G HT/PER HT/PER/DIR (UTC) (F) (DEG/KT/KT) (MB) (FT/S) (FT/S/D) BUOY 41004 0550 67 69 350/ 10/ 10 1018.2 1/ 4 BUOY 41008 0550 63 62 230/ 8/ 8 1019.3 1 FOLLY BEACH CMAN 0600 58 280/ 4/ 5 1019.5R CAPERS NEARSHORE 0608 60 60 340/ 4/ 6 1018.6R FRIPP NEARSHORE 0608 60 60 280/ 2/ 4 1019.3R STATION/POSITION TIME TEMP WIND PRES WAVE SWELL AIR SEA DIR/SP/G HT/PER HT/PER/DIR (UTC) (F) (DEG/KT/KT) (MB) (FT/S) (FT/S/D) 5E ST. MARYS GA 0630 63 N/A 1 FRYING PAN BUOY 0650 63 64 310/ 10/ 12 1017.9S 2/ 6 2/170/ 6 BUOY 41025 0650 64 67 350/ 8/ 10 1017.2S 1/ 7 2/140/ 7 CAPE LOOKOUT NC 0600 56 300/ 4/ 5 1017.1S BUOY 41002 0650 70 71 360/ 19/ 21 1014.8F 6/ 7 BUOY 41010 NOT AVBL ST AUGUSTINE FL 0700 60 66 260/ 5/ 6 1020.4R $$

USA.gov is the U.S. government's official web portal to all federal, state and local government web resources and services.